| time (UTC) | temp C | wind direction | speed KPH | gust KPH | rain 1hr cm | rain 24hr cm | rain mn cm | humidity % | barometer mb |
| 20260503050055 | 5 | 199 | 1.6 | 9.7 | 0.00 | 0.00 | 0.00 | 55 | 1017.9 |
| 20260503044552 | 5 | 207 | 3.2 | 8.0 | 0.00 | 0.00 | 0.00 | 55 | 1018.0 |
| 20260503043050 | 5 | 235 | 4.8 | 12.9 | 0.00 | 0.00 | 0.00 | 54 | 1018.2 |
| 20260503041551 | 5 | 130 | 4.8 | 9.7 | 0.00 | 0.00 | 0.00 | 53 | 1018.3 |
| 20260503040051 | 5 | 131 | 1.6 | 4.8 | 0.00 | 0.00 | 0.00 | 54 | 1018.3 |
| 20260503034554 | 5 | 224 | 1.6 | 6.4 | 0.00 | 0.00 | 0.00 | 54 | 1018.4 |
| 20260503033109 | 5 | 162 | 1.6 | 8.0 | 0.00 | 0.00 | 0.00 | 54 | 1018.6 |
| 20260503031600 | 5 | 188 | 1.6 | 4.8 | 0.00 | 0.00 | 0.00 | 56 | 1018.7 |
| 20260503030057 | 5 | 134 | 3.2 | 9.7 | 0.00 | 0.00 | 0.00 | 54 | 1018.7 |
| 20260503024621 | 5 | 169 | 1.6 | 6.4 | 0.00 | 0.00 | 0.00 | 54 | 1018.8 |
| 20260503023053 | 5 | 236 | 0.0 | 6.4 | 0.00 | 0.00 | 0.00 | 56 | 1019.0 |
| 20260503021604 | 5 | 233 | 0.0 | 4.8 | 0.00 | 0.00 | 0.00 | 57 | 1019.0 |
| 20260503020053 | 5 | 288 | 0.0 | 3.2 | 0.00 | 0.00 | 0.00 | 57 | 1018.9 |
| 20260503014547 | 5 | 0 | 0.0 | 1.6 | 0.00 | 0.00 | 0.00 | 56 | 1018.9 |
| 20260503013053 | 5 | 271 | 0.0 | 4.8 | 0.00 | 0.00 | 0.00 | 55 | 1018.9 |
| 20260503011557 | 6 | 0 | 0.0 | 3.2 | 0.00 | 0.00 | 0.00 | 53 | 1018.9 |
| 20260503010051 | 6 | 275 | 0.0 | 3.2 | 0.00 | 0.00 | 0.00 | 52 | 1018.8 |
| 20260503004556 | 7 | 292 | 0.0 | 4.8 | 0.00 | 0.00 | 0.00 | 49 | 1018.7 |
| 20260503003051 | 8 | 287 | 1.6 | 8.0 | 0.00 | 0.00 | 0.00 | 46 | 1018.8 |
| 20260503001559 | 9 | 239 | 1.6 | 6.4 | 0.00 | 0.00 | 0.00 | 44 | 1018.8 |
| 20260503000104 | 9 | 278 | 3.2 | 9.7 | 0.00 | 0.00 | 0.00 | 41 | 1018.8 |
| 20260502234555 | 10 | 298 | 3.2 | 9.7 | 0.00 | 0.00 | 0.00 | 40 | 1018.7 |
| 20260502233105 | 11 | 283 | 3.2 | 8.0 | 0.00 | 0.00 | 0.00 | 37 | 1018.8 |
| 20260502231604 | 10 | 327 | 1.6 | 9.7 | 0.00 | 0.00 | 0.00 | 38 | 1018.9 |
| 20260502230053 | 11 | 264 | 1.6 | 19.3 | 0.00 | 0.00 | 0.00 | 37 | 1019.0 |
| 20260502224548 | 11 | 290 | 3.2 | 11.3 | 0.00 | 0.00 | 0.00 | 36 | 1019.1 |
| 20260502223051 | 11 | 29 | 3.2 | 12.9 | 0.00 | 0.00 | 0.00 | 38 | 1019.1 |
| 20260502221601 | 10 | 32 | 4.8 | 16.1 | 0.00 | 0.00 | 0.00 | 39 | 1019.2 |
| 20260502220051 | 10 | 330 | 3.2 | 16.1 | 0.00 | 0.00 | 0.00 | 41 | 1019.3 |
| 20260502214554 | 10 | 98 | 3.2 | 16.1 | 0.00 | 0.00 | 0.00 | 42 | 1019.2 |
| 20260502213054 | 10 | 68 | 6.4 | 16.1 | 0.00 | 0.00 | 0.00 | 41 | 1019.2 |
| 20260502211549 | 10 | 233 | 3.2 | 20.9 | 0.00 | 0.00 | 0.00 | 44 | 1019.2 |
| 20260502210049 | 10 | 113 | 4.8 | 17.7 | 0.00 | 0.00 | 0.00 | 42 | 1019.3 |
| 20260502204553 | 10 | 47 | 4.8 | 17.7 | 0.00 | 0.00 | 0.00 | 46 | 1019.5 |
| 20260502203058 | 10 | 301 | 4.8 | 35.4 | 0.00 | 0.00 | 0.00 | 47 | 1019.7 |
| 20260502201552 | 9 | 42 | 8.0 | 19.3 | 0.00 | 0.00 | 0.00 | 50 | 1019.7 |
| 20260502200055 | 10 | 266 | 4.8 | 16.1 | 0.00 | 0.00 | 0.00 | 48 | 1020.0 |
| 20260502194554 | 10 | 315 | 4.8 | 25.7 | 0.00 | 0.00 | 0.00 | 51 | 1020.1 |
| 20260502193053 | 9 | 304 | 8.0 | 29.0 | 0.00 | 0.00 | 0.00 | 49 | 1020.3 |
| 20260502191550 | 9 | 261 | 8.0 | 19.3 | 0.00 | 0.00 | 0.00 | 48 | 1020.3 |
| 20260502190055 | 10 | 270 | 4.8 | 17.7 | 0.00 | 0.00 | 0.00 | 48 | 1020.5 |
| 20260502184553 | 9 | 283 | 4.8 | 16.1 | 0.00 | 0.00 | 0.00 | 51 | 1020.5 |
| 20260502183052 | 8 | 309 | 4.8 | 16.1 | 0.00 | 0.00 | 0.00 | 51 | 1020.8 |
| 20260502181555 | 8 | 6 | 3.2 | 14.5 | 0.00 | 0.00 | 0.00 | 50 | 1020.9 |
| 20260502163055 | 7 | 304 | 1.6 | 14.5 | 0.00 | 0.00 | 0.00 | 56 | 1021.5 |
| 20260502161555 | 6 | 51 | 1.6 | 9.7 | 0.00 | 0.00 | 0.00 | 56 | 1021.8 |
| 20260502151603 | 7 | 246 | 4.8 | 16.1 | 0.00 | 0.00 | 0.00 | 57 | 1021.8 |
| 20260502150105 | 6 | 105 | 3.2 | 12.9 | 0.00 | 0.00 | 0.00 | 58 | 1021.8 |
| 20260502123051 | 2 | 77 | 1.6 | 8.0 | 0.00 | 0.00 | 0.00 | 83 | 1022.2 |
| 20260502121554 | 1 | 0 | 0.0 | 9.7 | 0.00 | 0.00 | 0.00 | 85 | 1022.0 |
| 20260502120111 | 0 | 0 | 0.0 | 3.2 | 0.00 | 0.00 | 0.00 | 90 | 1021.9 |
| 20260502114559 | 0 | 0 | 0.0 | 0.0 | 0.00 | 0.00 | 0.00 | 91 | 1021.8 |
| 20260502113047 | -1 | 0 | 0.0 | 0.0 | 0.00 | 0.00 | 0.00 | 90 | 1021.7 |
| 20260502111553 | -2 | 0 | 0.0 | 0.0 | 0.00 | 0.00 | 0.00 | 89 | 1021.7 |
| 20260502110053 | -2 | 0 | 0.0 | 0.0 | 0.00 | 0.00 | 0.00 | 87 | 1021.7 |
| 20260502104554 | -2 | 0 | 0.0 | 0.0 | 0.00 | 0.00 | 0.00 | 88 | 1021.5 |
| 20260502103048 | -2 | 0 | 0.0 | 0.0 | 0.00 | 0.00 | 0.00 | 87 | 1021.5 |
| 20260502101550 | -1 | 0 | 0.0 | 0.0 | 0.00 | 0.00 | 0.00 | 85 | 1021.4 |
| 20260502100112 | -1 | 0 | 0.0 | 0.0 | 0.00 | 0.00 | 0.00 | 85 | 1021.3 |
| 20260502070057 | 0 | 0 | 0.0 | 0.0 | 0.00 | 0.00 | 0.00 | 83 | 1021.0 |
| 20260502064558 | 0 | 0 | 0.0 | 0.0 | 0.00 | 0.00 | 0.00 | 81 | 1020.9 |
| 20260502063050 | 0 | 0 | 0.0 | 0.0 | 0.00 | 0.00 | 0.00 | 79 | 1021.1 |
| 20260502061552 | 1 | 0 | 0.0 | 0.0 | 0.00 | 0.00 | 0.00 | 79 | 1021.2 |
| 20260502060050 | 1 | 0 | 0.0 | 0.0 | 0.00 | 0.00 | 0.00 | 78 | 1021.3 |
| 20260502054549 | 1 | 0 | 0.0 | 0.0 | 0.00 | 0.00 | 0.00 | 77 | 1021.1 |
| 20260502053052 | 1 | 0 | 0.0 | 0.0 | 0.00 | 0.00 | 0.00 | 76 | 1021.3 |
| 20260502051624 | 1 | 0 | 0.0 | 0.0 | 0.00 | 0.00 | 0.00 | 75 | 1021.1 |